Date,TemperatureHighF,TemperatureAvgF,TemperatureLowF,DewpointHighF,DewpointAvgF,DewpointLowF,HumidityHigh,HumidityAvg,HumidityLow,PressureMaxIn,PressureMinIn,WindSpeedMaxMPH,WindSpeedAvgMPH,GustSpeedMaxMPH,PrecipitationSumIn
2013-4-1,81,71,63,71,66,61,97,86,64,30.05,29.97,14,2,16,0.00
2013-4-2,84,73,66,69,67,64,97,82,58,30.09,30.00,6,1,11,0.00
2013-4-3,86,75,66,71,67,64,93,79,52,30.06,29.94,11,2,17,0.00
2013-4-4,82,71,65,73,68,64,96,90,75,30.02,29.86,8,2,12,0.55
2013-4-5,75,69,63,68,64,58,97,84,68,30.02,29.81,12,2,23,0.63
2013-4-6,79,68,60,64,60,55,93,76,52,30.09,29.97,4,1,14,0.00
2013-4-7,86,73,60,65,62,58,95,73,38,30.12,30.02,6,1,10,0.00
2013-4-8,87,75,62,67,63,59,93,69,42,30.11,30.01,4,1,8,0.00
2013-4-9,87,74,63,69,64,61,94,74,46,30.12,30.04,7,1,11,0.00
2013-4-10,90,76,66,74,69,64,94,81,55,30.09,29.95,8,2,14,0.13
2013-4-11,89,78,71,76,72,70,95,83,60,29.99,29.84,9,2,13,0.01
2013-4-12,86,79,74,76,74,72,95,86,70,29.93,29.86,12,3,17,0.00
2013-4-13,90,80,72,74,71,68,94,76,56,29.96,29.84,8,1,15,0.00
2013-4-14,88,79,70,77,72,68,94,81,60,29.96,29.84,11,2,19,0.00
2013-4-15,90,79,66,76,70,63,94,76,56,30.06,29.92,10,1,10,0.03
2013-4-16,92,80,70,75,71,68,96,76,51,30.12,30.00,7,1,13,0.00
2013-4-17,89,78,69,72,69,66,94,73,50,30.11,29.98,4,1,9,0.00
2013-4-18,89,79,71,75,70,66,93,76,54,30.04,29.93,8,2,14,0.03
2013-4-19,88,79,71,76,73,69,95,83,62,30.01,29.93,11,2,16,0.01
2013-4-20,90,79,72,77,72,69,97,81,59,30.11,29.95,3,1,9,0.00
2013-4-21,89,74,64,73,69,63,96,84,55,30.11,29.98,5,1,12,0.47
2013-4-22,85,74,68,73,69,66,97,85,64,30.07,29.93,3,0,10,0.30
2013-4-23,88,75,66,70,66,63,95,76,49,30.08,29.97,6,1,10,0.00
2013-4-24,88,75,62,71,65,60,95,75,43,30.13,30.04,5,1,8,0.00
2013-4-25,88,77,65,70,66,62,95,72,42,30.20,30.07,4,1,7,0.00
2013-4-26,87,76,63,67,64,60,94,69,49,30.22,30.12,6,1,10,0.00
2013-4-27,88,77,67,67,65,61,93,69,48,30.20,30.05,9,2,15,0.00
2013-4-28,88,77,67,71,66,62,86,71,48,30.10,29.95,7,2,14,0.00
2013-4-29,88,76,66,74,67,62,88,75,54,30.01,29.91,8,2,14,0.00
2013-4-30,87,76,68,75,70,66,96,82,64,29.98,29.90,8,2,12,0.00